Theta_e
347 346 344 343 341 339 337 337 336 336 335 334 334 333 333 335 338 341 342 342 344 344 343 342 343 343 341 340 338 336 333 330 328 325 324 323 324 324 324 325 326 327
347 347 346 346 345 342 339 336 335 334 333 333 332 333 333 334 337 340 341 341 343 344 342 342 342 341 340 339 337 335 332 328 326 323 321 322 323 324 324 323 324 325
347 347 347 347 346 345 343 340 337 334 333 332 332 332 333 335 337 339 340 341 342 343 342 341 340 339 338 337 336 335 332 328 325 322 320 321 322 323 323 324 323 323
347 347 347 347 346 346 346 345 342 337 334 332 333 333 334 336 338 339 340 341 342 342 342 341 340 337 336 335 335 335 333 329 325 323 322 321 321 322 324 325 324 322
346 346 346 346 346 346 346 346 346 343 337 333 333 334 335 337 339 340 340 340 341 341 342 342 341 338 336 335 335 335 334 331 326 324 323 321 320 321 323 324 323 322
346 346 347 347 347 346 346 346 346 346 342 336 333 333 335 337 340 340 340 340 341 341 342 342 342 339 337 336 336 336 335 333 329 326 324 321 320 321 323 324 324 321
346 346 347 347 347 347 347 347 346 347 346 342 336 333 334 336 338 340 340 340 340 341 342 342 342 341 339 337 337 336 336 335 333 330 325 321 320 320 321 324 324 321
346 346 347 347 347 347 347 347 347 346 346 346 341 336 333 335 337 338 339 340 340 341 342 342 343 342 340 339 338 337 336 336 335 333 328 323 321 319 319 322 324 322
346 346 347 347 347 347 347 347 347 347 347 347 345 339 334 334 336 337 338 340 340 340 341 342 343 343 342 340 339 338 337 336 337 336 333 328 322 319 318 320 322 323
346 347 347 347 347 347 347 347 347 347 348 348 347 344 339 335 335 336 337 339 340 340 340 341 342 342 342 341 340 339 338 338 338 338 337 333 327 321 318 318 320 322
347 347 347 347 347 347 348 347 348 348 348 348 349 348 344 338 335 335 336 337 338 339 339 339 340 341 342 341 340 339 339 338 339 339 339 337 333 327 322 318 318 320
347 347 347 347 347 348 348 348 348 348 348 349 349 349 347 342 336 335 335 336 337 338 339 338 339 340 341 341 340 340 339 339 339 340 340 340 337 333 329 323 319 318
347 347 347 347 347 348 348 348 348 348 348 349 350 350 349 345 338 335 335 336 337 337 338 338 338 339 340 340 341 340 340 340 340 340 340 341 339 336 333 330 324 319
346 347 347 347 347 347 348 348 348 348 349 349 350 351 350 346 340 336 335 336 337 337 338 338 338 338 339 340 340 340 340 340 340 340 340 341 340 339 337 334 330 325
347 347 347 347 348 348 348 348 348 349 349 350 351 352 351 347 342 338 337 336 337 337 338 338 337 337 338 338 338 339 339 340 341 341 340 341 341 341 340 337 336 333
348 348 348 348 348 348 348 348 349 349 350 350 351 352 351 348 345 342 338 336 336 337 337 337 337 336 336 337 337 338 338 340 341 341 342 342 342 342 342 341 339 338
349 349 349 349 348 349 349 349 349 350 350 351 351 353 352 350 347 343 339 337 336 336 336 336 336 336 336 336 336 337 338 339 340 341 343 344 345 344 344 343 343 341
349 349 350 349 349 349 348 349 350 350 351 351 352 353 352 352 348 343 340 339 337 335 335 335 336 336 336 336 336 337 338 339 339 341 342 344 346 346 346 345 344 343
349 350 350 349 349 349 350 350 350 350 351 351 351 353 353 352 349 343 341 339 337 335 333 334 335 336 336 336 337 337 338 339 340 341 342 344 346 348 347 346 345 344
349 350 350 350 350 350 351 351 351 351 351 351 352 353 353 353 350 345 341 339 336 334 332 333 334 335 336 336 337 337 339 340 341 342 344 346 348 349 348 347 346 345
350 350 350 351 351 351 352 352 351 351 352 352 353 353 353 354 352 349 344 338 335 334 334 333 333 334 336 336 337 338 339 341 342 344 347 348 349 349 348 347 348 346
350 350 351 352 353 353 353 352 352 352 352 353 354 354 354 355 355 353 348 342 339 337 335 333 332 333 335 336 337 338 340 342 344 347 348 349 349 349 348 349 349 348
351 352 352 353 354 354 354 353 353 353 353 354 355 355 355 355 355 355 353 350 347 343 338 334 332 333 334 335 337 338 340 343 346 348 349 349 349 349 349 350 350 350
352 352 353 353 354 354 353 353 353 353 354 355 355 355 355 356 356 356 356 355 353 348 341 336 334 333 334 335 336 337 341 343 347 349 350 349 349 349 350 351 351 350
351 353 353 354 354 354 354 354 354 354 355 355 355 355 355 355 356 356 356 356 355 353 349 344 340 337 335 335 336 337 341 345 349 350 351 350 350 350 351 352 352 351
352 352 353 354 353 353 353 354 354 355 355 356 356 356 355 356 356 356 356 356 356 355 353 351 348 343 339 336 337 338 341 346 349 351 351 351 351 351 352 353 353 353
Wind_Speed
38 36 36 36 36 35 35 34 33 32 32 32 32 31 29 28 27 27 27 27 26 25 23 22 21 20 20 19 19 19 18 18 17 15 15 15 15 15 16 16 16 15
40 38 37 36 35 34 34 34 33 32 32 32 32 31 30 30 29 28 27 27 27 26 24 22 21 21 21 20 20 20 19 18 18 16 16 16 15 15 16 16 16 16
43 41 39 38 36 34 33 33 33 32 31 31 31 31 31 30 30 29 28 27 27 26 25 23 21 21 22 21 21 21 20 20 18 17 17 16 16 16 16 16 16 16
45 43 41 39 37 35 34 33 33 33 32 32 31 31 31 31 30 30 29 28 27 27 26 24 22 22 22 22 22 23 22 21 20 19 19 18 17 17 17 16 16 16
45 44 43 41 39 37 36 35 34 33 33 33 32 32 31 31 31 30 30 29 28 27 27 25 23 22 23 23 23 23 23 23 22 21 21 20 19 19 18 17 17 18
47 46 44 43 41 39 38 37 35 34 33 33 33 33 32 32 31 31 31 30 29 28 28 26 24 24 24 24 24 25 24 24 23 23 22 22 21 20 20 19 19 19
49 47 46 45 43 42 41 38 36 35 33 33 34 35 34 33 33 32 32 31 30 29 29 27 26 25 25 25 25 26 26 26 25 24 24 23 22 22 22 22 21 20
49 48 47 46 45 44 43 40 38 36 34 33 34 36 36 35 34 33 33 32 31 30 30 29 28 27 26 26 26 27 27 27 27 26 25 25 24 24 24 23 22 22
50 49 48 48 47 46 45 42 40 37 35 35 34 35 36 36 36 35 34 34 33 32 31 30 30 29 28 28 28 28 28 28 28 28 27 26 25 24 24 24 24 23
52 51 50 49 48 47 46 44 41 39 37 36 35 35 37 37 37 36 36 36 36 35 34 33 32 31 30 30 30 30 29 29 29 29 28 27 26 25 24 25 25 25
53 52 51 51 50 49 47 45 42 40 39 38 37 36 37 37 38 38 38 38 38 37 36 35 34 33 32 32 31 31 31 30 30 30 29 28 27 26 25 25 26 26
53 53 52 51 50 49 47 45 43 42 41 40 38 37 37 38 39 40 40 40 39 38 37 37 36 35 34 33 32 32 32 31 31 30 30 29 28 27 26 26 26 26
54 53 52 51 50 49 47 45 44 43 42 41 39 38 38 39 40 41 41 40 40 39 39 38 37 36 35 34 34 33 33 32 32 31 31 30 29 28 27 27 27 27
54 53 52 51 50 48 47 45 44 43 43 42 40 40 40 40 41 42 41 41 41 40 39 39 38 38 37 36 35 34 34 34 33 33 32 31 30 29 28 27 27 28
54 53 52 51 50 49 47 46 44 43 43 42 41 41 40 40 41 41 42 42 42 41 40 40 40 40 39 37 36 35 35 35 34 33 33 33 32 30 29 28 28 28
54 53 53 52 51 49 48 46 44 43 43 42 41 41 41 41 41 42 43 43 43 42 41 41 41 41 39 37 36 36 36 36 35 34 33 33 33 32 31 29 28 28
54 54 53 52 51 49 48 47 45 44 43 42 42 41 41 41 42 43 44 44 44 43 42 42 42 41 39 37 36 36 36 36 35 35 34 33 33 32 31 29 29 29
53 53 53 53 51 50 48 47 46 45 44 43 43 43 42 42 43 44 44 44 44 44 44 43 42 40 38 37 37 36 35 35 35 34 34 34 33 31 31 31 31 29
53 53 53 53 52 50 49 49 48 48 47 45 45 44 43 43 44 44 45 45 45 45 45 44 43 40 38 38 37 36 35 34 34 34 34 33 31 31 32 32 28 27
52 52 53 53 52 51 50 50 50 50 48 47 47 46 46 46 45 45 45 46 46 46 46 45 43 40 39 38 37 36 34 33 33 34 33 32 32 34 34 29 25 24
52 52 53 53 52 51 51 51 51 50 49 49 49 49 48 48 46 45 46 47 47 46 46 46 43 41 40 39 38 36 34 33 34 34 34 33 34 35 31 26 24 24
52 52 52 52 52 51 51 52 52 51 50 50 50 50 50 50 49 48 47 48 47 47 47 46 44 42 41 40 38 36 35 35 35 35 35 34 34 33 29 26 27 27
51 52 52 52 51 52 52 52 51 51 51 50 51 51 52 52 51 50 49 49 48 48 48 47 45 44 42 41 38 37 36 36 36 36 35 34 33 31 29 28 29 29
50 50 51 51 51 51 51 51 50 50 50 51 51 51 52 52 51 51 51 51 50 49 48 47 46 44 43 41 39 38 38 37 37 36 35 33 31 30 29 29 30 29
48 49 50 51 51 51 51 50 50 50 50 50 51 51 51 51 50 51 52 52 51 50 49 48 47 45 44 42 41 40 39 38 38 37 36 33 30 28 29 31 32 30
47 48 49 49 49 49 49 49 49 49 49 50 51 51 51 51 50 51 51 51 51 51 50 49 48 47 45 44 42 41 39 39 38 37 36 33 28 26 28 30 30 30
Wind_Direction
231 230 230 232 234 235 236 236 235 236 237 239 240 242 243 243 242 241 241 240 242 244 246 248 249 249 248 248 248 247 246 245 244 241 241 244 246 245 246 250 255 259
231 232 232 233 233 234 235 235 235 236 237 239 240 242 243 244 244 243 242 241 241 244 246 248 249 248 246 246 246 246 244 243 242 239 239 241 245 247 247 250 254 257
230 231 233 234 234 234 234 234 235 235 237 238 239 240 241 242 244 244 243 241 241 243 246 248 249 248 244 242 244 244 243 242 242 241 240 241 244 247 248 250 253 255
231 231 232 234 236 236 236 236 236 235 235 237 238 237 239 240 242 244 243 241 241 242 244 247 248 246 242 241 242 243 243 242 241 240 240 240 241 244 247 249 252 253
233 233 233 234 235 236 237 238 238 236 235 236 237 237 237 238 239 241 242 241 241 242 244 246 246 245 242 241 242 243 244 242 240 240 240 239 239 242 245 247 249 250
234 234 234 234 235 236 237 238 239 238 236 236 237 238 238 237 238 239 240 241 242 243 245 246 246 245 243 242 243 243 245 245 243 241 241 240 240 242 244 245 247 248
235 235 235 235 235 236 237 238 240 240 239 237 237 238 239 238 238 238 239 240 242 244 245 247 247 245 245 244 244 243 244 246 246 244 244 242 242 243 243 245 245 245
236 236 236 236 236 236 237 238 239 241 241 239 237 238 239 239 239 239 239 240 241 243 245 246 247 246 246 245 246 245 244 246 248 248 246 245 243 243 243 245 246 245
236 236 237 237 237 237 238 238 239 240 241 241 239 238 238 240 240 240 240 240 241 242 243 245 246 247 246 246 247 247 247 248 250 251 251 249 247 245 245 246 247 246
235 236 236 237 238 238 238 238 239 240 241 242 241 239 239 239 240 241 241 241 241 241 242 243 245 246 246 247 248 249 250 250 252 253 255 254 252 250 249 249 248 247
234 235 236 237 238 238 239 239 240 240 241 242 242 241 240 239 240 240 240 241 241 241 241 242 243 244 245 247 249 251 251 252 253 254 256 257 256 254 252 252 251 249
234 235 236 237 238 238 239 240 240 240 241 242 242 242 241 239 239 240 240 241 241 241 241 242 242 243 244 246 248 251 252 253 253 254 256 257 257 256 255 254 254 252
235 236 237 237 238 239 240 240 240 240 240 241 242 242 241 239 238 239 239 240 241 242 242 242 243 243 243 245 247 250 251 253 254 254 255 256 258 258 257 257 256 255
236 236 237 237 238 239 240 240 240 240 240 241 242 242 241 239 238 238 239 240 241 242 242 242 243 243 243 243 245 247 250 252 253 254 255 256 258 258 259 260 260 259
235 235 235 236 237 238 239 239 239 240 240 241 241 242 241 239 238 238 238 239 240 241 242 242 242 242 242 242 244 246 248 250 252 253 255 256 257 259 260 261 262 264
233 234 234 235 236 237 238 238 238 238 239 240 240 241 241 239 238 238 237 238 239 240 241 242 242 242 242 242 243 245 248 250 252 254 255 256 258 259 260 261 265 269
232 232 233 234 235 236 237 237 236 237 237 238 239 240 240 239 238 237 236 236 238 239 240 241 242 242 242 243 244 245 247 250 253 255 257 258 259 261 263 267 268 269
232 232 232 234 235 235 236 236 236 235 236 237 237 238 238 239 237 236 236 236 237 238 239 240 241 242 242 243 244 245 247 251 254 256 258 259 261 263 265 265 266 269
232 232 232 234 235 235 235 235 235 235 235 235 236 237 238 238 237 236 236 236 237 238 238 240 241 242 242 243 244 245 247 250 254 256 258 260 262 262 260 260 264 268
231 232 234 234 235 234 233 234 235 236 236 236 236 237 237 238 237 237 236 236 236 237 239 240 241 242 242 243 244 246 247 249 252 255 257 259 259 257 257 258 260 262
231 233 234 234 233 232 233 234 235 236 237 237 237 237 238 238 238 238 237 237 237 237 239 240 241 242 243 244 245 246 247 249 251 253 255 255 255 255 257 259 259 258
232 232 233 232 231 231 232 234 235 237 237 237 238 239 240 240 240 239 239 238 238 239 240 240 241 242 243 244 246 247 248 249 250 251 251 252 253 256 258 259 259 259
232 231 231 231 230 230 232 234 236 237 237 237 238 239 240 240 241 241 241 241 241 240 241 241 241 242 243 244 246 247 248 249 249 248 248 250 253 256 257 256 258 259
234 233 232 232 232 233 235 236 237 238 238 238 238 239 241 242 243 243 243 243 243 242 242 242 243 243 244 245 246 247 248 249 249 248 248 249 251 254 256 256 256 258
236 235 234 234 235 237 238 238 238 238 238 239 239 240 242 243 244 245 245 245 245 244 244 244 245 245 246 246 247 247 248 249 248 248 247 248 249 251 255 256 256 258
238 237 237 237 239 241 241 241 240 239 239 239 240 241 241 242 243 244 245 246 246 246 246 245 245 245 246 246 247 248 248 248 247 247 247 248 247 248 252 256 259 262